• In Belarus
  • List of Countries
  • For 7 days
  • Water Temperature
  • Satellite Maps
  • Weather Map
  • Weather Widgets
  • user-avatar
    Login

    Hourly Weather Chengalpattu

    Today, 15 November, Thursday

    Time Temperature Precipitation Wind Pressure Humidity
    00:00 +27°C° 0 mm 4 mps 754 mmHg 65%
    01:00 +27°C° 0 mm 4 mps 753 mmHg 65%
    02:00 +27°C° 0 mm 4 mps 753 mmHg 66%
    03:00 +27°C° 0.1 mm 4 mps 753 mmHg 65%
    04:00 +27°C° 0.1 mm 5 mps 753 mmHg 65%
    05:00 +26°C° 0 mm 3 mps 753 mmHg 68%
    06:00 +27°C° 0.2 mm 4 mps 753 mmHg 65%
    07:00 +28°C° 0.2 mm 5 mps 754 mmHg 63%
    08:00 +29°C° 0.2 mm 6 mps 754 mmHg 61%
    09:00 +30°C° 0.4 mm 7 mps 754 mmHg 61%
    10:00 +32°C° 0.4 mm 7 mps 754 mmHg 62%
    11:00 +33°C° 0 mm 8 mps 754 mmHg 63%
    12:00 +33°C° 1 mm 8 mps 753 mmHg 64%
    13:00 +33°C° 1 mm 8 mps 752 mmHg 65%
    14:00 +33°C° 1 mm 9 mps 752 mmHg 67%
    15:00 +32°C° 0.8 mm 8 mps 752 mmHg 72%
    16:00 +31°C° 0.8 mm 8 mps 752 mmHg 77%
    17:00 +29°C° 0.8 mm 8 mps 752 mmHg 82%
    18:00 +28°C° 0.2 mm 7 mps 752 mmHg 83%
    19:00 +28°C° 0.2 mm 7 mps 753 mmHg 84%
    20:00 +28°C° 0.2 mm 6 mps 753 mmHg 86%
    21:00 +28°C° 0 mm 6 mps 753 mmHg 86%
    22:00 +28°C° 0 mm 6 mps 753 mmHg 86%
    23:00 +28°C° 0 mm 6 mps 753 mmHg 86%

    Tomorrow, 16 November, Friday

    Time Temperature Precipitation Wind Pressure Humidity
    00:00 +28°C° 0.1 mm 6 mps 753 mmHg 86%
    01:00 +28°C° 0.1 mm 7 mps 753 mmHg 86%
    02:00 +28°C° 0.1 mm 7 mps 753 mmHg 86%
    03:00 +28°C° 0.4 mm 6 mps 753 mmHg 85%
    04:00 +28°C° 0.4 mm 6 mps 753 mmHg 85%
    05:00 +28°C° 0.4 mm 6 mps 753 mmHg 85%
    06:00 +28°C° 0.3 mm 6 mps 754 mmHg 83%
    07:00 +29°C° 0.3 mm 5 mps 754 mmHg 81%
    08:00 +29°C° 0.3 mm 5 mps 755 mmHg 78%
    09:00 +30°C° 0.3 mm 5 mps 755 mmHg 75%
    10:00 +32°C° 0.3 mm 5 mps 755 mmHg 72%
    11:00 +32°C° 0.3 mm 5 mps 755 mmHg 69%
    12:00 +32°C° 0.6 mm 5 mps 755 mmHg 69%
    13:00 +32°C° 0.6 mm 5 mps 754 mmHg 70%
    14:00 +32°C° 0.6 mm 4 mps 754 mmHg 71%
    15:00 +30°C° 0.3 mm 4 mps 754 mmHg 74%
    16:00 +29°C° 0.3 mm 3 mps 754 mmHg 77%
    17:00 +29°C° 0.3 mm 2 mps 754 mmHg 81%
    18:00 +28°C° 0.3 mm 2 mps 755 mmHg 82%
    19:00 +28°C° 0.3 mm 1 mps 755 mmHg 84%
    20:00 +28°C° 0.3 mm 1 mps 756 mmHg 85%
    21:00 +28°C° 0.4 mm 1 mps 756 mmHg 86%
    22:00 +27°C° 0.4 mm 1 mps 756 mmHg 87%
    23:00 +27°C° 0.4 mm 1 mps 756 mmHg 88%

    Day after tomorrow, 17 November, Saturday

    Time Temperature Precipitation Wind Pressure Humidity
    00:00 +27°C° 0.2 mm 1 mps 755 mmHg 88%
    01:00 +27°C° 0.2 mm 1 mps 755 mmHg 88%
    02:00 +27°C° 0.2 mm 1 mps 754 mmHg 89%
    03:00 +27°C° 0 mm 1 mps 754 mmHg 89%
    04:00 +26°C° 0 mm 1 mps 754 mmHg 90%
    05:00 +26°C° 0 mm 1 mps 754 mmHg 91%
    06:00 +27°C° 0 mm 1 mps 755 mmHg 86%
    07:00 +28°C° 0 mm 1 mps 755 mmHg 82%
    08:00 +29°C° 0 mm 2 mps 756 mmHg 78%
    09:00 +30°C° 0 mm 2 mps 756 mmHg 71%
    10:00 +32°C° 0 mm 2 mps 756 mmHg 65%
    11:00 +34°C° 0 mm 2 mps 755 mmHg 58%
    12:00 +34°C° 0.1 mm 3 mps 755 mmHg 58%
    13:00 +34°C° 0.1 mm 3 mps 754 mmHg 57%
    14:00 +34°C° 0.1 mm 3 mps 753 mmHg 56%
    15:00 +33°C° 0.8 mm 3 mps 753 mmHg 63%
    16:00 +31°C° 0.8 mm 3 mps 753 mmHg 70%
    17:00 +30°C° 0.8 mm 4 mps 753 mmHg 77%
    18:00 +29°C° 0.3 mm 3 mps 754 mmHg 79%
    19:00 +29°C° 0.3 mm 3 mps 755 mmHg 81%
    20:00 +28°C° 0.3 mm 3 mps 756 mmHg 84%
    21:00 +28°C° 0.4 mm 3 mps 755 mmHg 85%
    22:00 +28°C° 0.4 mm 3 mps 755 mmHg 86%
    23:00 +28°C° 0.4 mm 2 mps 755 mmHg 87%

    18 November, Sunday

    Time Temperature Precipitation Wind Pressure Humidity
    00:00 +28°C° 1 mm 2 mps 755 mmHg 87%
    01:00 +27°C° 1 mm 2 mps 754 mmHg 88%
    02:00 +27°C° 1 mm 2 mps 754 mmHg 89%
    03:00 +27°C° 0.3 mm 2 mps 754 mmHg 90%
    04:00 +27°C° 0.3 mm 2 mps 754 mmHg 90%
    05:00 +27°C° 0.3 mm 2 mps 754 mmHg 90%
    06:00 +28°C° 0.2 mm 2 mps 755 mmHg 86%
    07:00 +29°C° 0.2 mm 3 mps 756 mmHg 82%
    08:00 +30°C° 0.2 mm 3 mps 756 mmHg 77%
    09:00 +31°C° 0.3 mm 3 mps 756 mmHg 73%
    10:00 +33°C° 0.3 mm 4 mps 756 mmHg 68%
    11:00 +34°C° 0.3 mm 4 mps 756 mmHg 64%
    12:00 +33°C° 1.1 mm 4 mps 755 mmHg 64%
    13:00 +33°C° 1.1 mm 5 mps 754 mmHg 65%
    14:00 +33°C° 1.1 mm 5 mps 753 mmHg 66%
    15:00 +32°C° 0.8 mm 4 mps 753 mmHg 70%
    16:00 +30°C° 0.8 mm 4 mps 754 mmHg 75%
    17:00 +29°C° 0.8 mm 4 mps 754 mmHg 79%
    18:00 +29°C° 0 mm 4 mps 755 mmHg 81%
    19:00 +28°C° 0 mm 3 mps 755 mmHg 83%
    20:00 +28°C° 0 mm 3 mps 756 mmHg 85%
    21:00 +28°C° 0.1 mm 3 mps 756 mmHg 86%
    22:00 +28°C° 0.1 mm 3 mps 756 mmHg 87%
    23:00 +28°C° 0.1 mm 3 mps 756 mmHg 88%

    19 November, Monday

    Time Temperature Precipitation Wind Pressure Humidity
    00:00 +27°C° 0.5 mm 3 mps 755 mmHg 89%
    01:00 +27°C° 0.5 mm 3 mps 755 mmHg 90%
    02:00 +27°C° 0.5 mm 3 mps 754 mmHg 91%
    03:00 +27°C° 1.2 mm 3 mps 755 mmHg 91%
    04:00 +27°C° 1.2 mm 3 mps 755 mmHg 91%
    05:00 +27°C° 1.2 mm 3 mps 755 mmHg 91%
    06:00 +27°C° 1.1 mm 3 mps 756 mmHg 87%
    07:00 +28°C° 1.1 mm 4 mps 756 mmHg 84%
    08:00 +29°C° 1.1 mm 4 mps 757 mmHg 80%
    09:00 +30°C° 1.3 mm 4 mps 757 mmHg 77%
    10:00 +30°C° 1.3 mm 4 mps 757 mmHg 73%
    11:00 +32°C° 1.3 mm 5 mps 757 mmHg 70%
    12:00 +32°C° 1.2 mm 5 mps 756 mmHg 70%
    13:00 +32°C° 1.2 mm 5 mps 755 mmHg 70%
    14:00 +32°C° 1.2 mm 5 mps 755 mmHg 70%
    15:00 +30°C° 0.7 mm 4 mps 755 mmHg 74%
    16:00 +29°C° 0.7 mm 4 mps 755 mmHg 77%
    17:00 +28°C° 0.7 mm 4 mps 755 mmHg 81%
    18:00 +28°C° 0.3 mm 4 mps 756 mmHg 82%
    19:00 +28°C° 0.3 mm 4 mps 757 mmHg 84%
    20:00 +27°C° 0.3 mm 3 mps 757 mmHg 85%
    21:00 +27°C° 0.3 mm 3 mps 757 mmHg 87%
    22:00 +27°C° 0.3 mm 3 mps 757 mmHg 88%
    23:00 +27°C° 0.3 mm 3 mps 757 mmHg 89%

    20 November, Tuesday

    Time Temperature Precipitation Wind Pressure Humidity
    00:00 +27°C° 0 mm 3 mps 756 mmHg 90%
    01:00 +27°C° 0 mm 3 mps 756 mmHg 90%
    02:00 +27°C° 0 mm 3 mps 755 mmHg 91%
    03:00 +27°C° 0 mm 3 mps 755 mmHg 91%
    04:00 +26°C° 0 mm 3 mps 755 mmHg 91%
    05:00 +26°C° 0 mm 3 mps 756 mmHg 91%
    06:00 +27°C° 0.1 mm 4 mps 756 mmHg 87%
    07:00 +28°C° 0.1 mm 5 mps 757 mmHg 82%
    08:00 +29°C° 0.1 mm 5 mps 758 mmHg 78%
    09:00 +30°C° 0.1 mm 6 mps 757 mmHg 73%
    10:00 +32°C° 0.1 mm 6 mps 757 mmHg 69%
    11:00 +33°C° 0.1 mm 6 mps 757 mmHg 64%
    12:00 +33°C° 0 mm 7 mps 756 mmHg 63%
    13:00 +33°C° 0 mm 7 mps 755 mmHg 61%
    14:00 +33°C° 0 mm 7 mps 755 mmHg 60%
    15:00 +32°C° 0.1 mm 6 mps 755 mmHg 65%
    16:00 +30°C° 0.1 mm 6 mps 755 mmHg 69%
    17:00 +29°C° 0.1 mm 5 mps 756 mmHg 74%
    18:00 +28°C° 0.1 mm 5 mps 756 mmHg 76%
    19:00 +28°C° 0.1 mm 5 mps 757 mmHg 77%
    20:00 +28°C° 0.1 mm 5 mps 758 mmHg 79%
    21:00 +28°C° 0 mm 5 mps 757 mmHg 80%
    22:00 +27°C° 0 mm 5 mps 757 mmHg 81%
    23:00 +27°C° 0 mm 4 mps 757 mmHg 82%
    Show more